sat.trackr.live / text

‹ back to catalog

STARLINK-35141

NORAD 65644 · 2025-210Y

PAYLOAD ACTIVE UNKNOWN

§ Identity

Operator
Country
US
Launch date
2025-09-18
Launch site
AFETR
Launch vehicle
Mass (kg)
RCS (m²)

Purposes: comms

External: N2YO · Heavens-Above · Gunter

§ Orbital elements

Epoch: 2026-09-19T21:06:58.862016Z

Period
94.01 min
Inclination
53.1583°
Eccentricity
0.0001249
Mean motion
15.31711073 rev/d
Perigee alt
469.9 km
Apogee alt
471.6 km
Semi-major
6,848.8 km
B*
2.2727e-4
RAAN
124.2894°
Arg perigee
87.1367°
Mean anomaly
272.9777°
Rev number
5,747

§ Raw data

STARLINK-351411 65644U 25210Y   26262.87984794  .00006696  00000+0  22727-3 0  99982 65644  53.1583 124.2894 0001249  87.1367 272.9777 15.31711073 57473

JSON: /api/v1/satellites/65644 · /tle

For live sub-satellite position, see the globe view (requires WebGL).

§ Visibility from observer

Set your observer location to see the next 7 days of passes ≥ 10°. The values pass through the URL so the page stays shareable.

No JS? Fill the form by hand. The geolocation button needs JavaScript.